DW8234 Weather Reports


Display with metric or nautical units.
time (UTC)temp
F
wind
direction
speed
MPH
gust
MPH
rain 1hr
in
rain 24hr
in
rain mn
in
humidity
%
barometer
mb
20180520075404 72 276 0.0 4.0 0.00 0.00 0.00 81 1018.5
20180520074403 72 276 0.0 4.0 0.00 0.00 0.00 82 1018.5
20180520073904 72 225 2.0 4.0 0.00 0.00 0.00 82 1018.6
20180520073403 72 225 0.0 4.0 0.00 0.00 0.00 82 1018.5
20180520072904 72 251 0.0 4.0 0.00 0.00 0.00 82 1018.6
20180520071903 72 230 2.0 3.0 0.00 0.00 0.00 82 1018.6
20180520070903 72 268 0.0 2.0 0.00 0.00 0.00 82 1018.5
20180520065903 72 233 0.0 3.0 0.00 0.00 0.00 83 1018.6
20180520065403 72 250 0.0 3.0 0.00 0.00 0.00 83 1018.6
20180520064903 72 234 2.0 3.0 0.00 0.00 0.00 83 1018.6
20180520063903 72 154 0.0 2.0 0.00 0.00 0.00 83 1018.6
20180520062903 72 154 0.0 2.0 0.00 0.00 0.00 81 1018.6
20180520060902 72 139 0.0 1.0 0.00 0.00 0.00 81 1018.6
20180520060402 72 104 0.0 1.0 0.00 0.00 0.00 81 1018.5
20180520055902 72 105 0.0 6.0 0.00 0.00 0.00 80 1018.5
20180520055402 72 113 0.0 6.0 0.00 0.00 0.00 81 1018.7
20180520054902 72 210 0.0 6.0 0.00 0.00 0.00 80 1018.6
20180520053402 72 105 0.0 6.0 0.00 0.00 0.00 80 1018.5
20180520050902 73 107 1.0 6.0 0.00 0.00 0.00 80 1018.5
20180520050402 73 141 1.0 4.0 0.00 0.00 0.00 79 1018.5
20180520045402 73 97 2.0 7.0 0.00 0.00 0.00 80 1018.6
20180520044902 73 77 3.0 7.0 0.00 0.00 0.00 81 1018.6
20180520043902 73 149 1.0 7.0 0.00 0.00 0.00 82 1018.8
20180520042901 73 115 1.0 7.0 0.00 0.00 0.00 83 1018.8
20180520041901 73 148 2.0 6.0 0.00 0.00 0.00 84 1019.0
20180520035901 73 133 0.0 4.0 0.00 0.00 0.00 85 1019.2
20180520034901 73 133 0.0 3.0 0.00 0.00 0.00 86 1019.5
20180520034401 73 107 0.0 3.0 0.00 0.00 0.00 86 1019.7
20180520033401 73 107 0.0 3.0 0.00 0.00 0.00 86 1019.8
20180520032901 73 142 0.0 3.0 0.00 0.00 0.00 85 1019.7
20180520031901 73 178 0.0 3.0 0.00 0.00 0.00 85 1019.6
20180520030401 73 135 0.0 2.0 0.00 0.00 0.00 85 1019.6
20180520025900 73 82 0.0 8.0 0.00 0.00 0.00 85 1019.5
20180520024900 73 140 1.0 8.0 0.00 0.00 0.00 85 1019.1
20180520024400 73 71 0.0 8.0 0.00 0.00 0.00 85 1019.0
20180520023900 73 119 1.0 4.0 0.00 0.00 0.00 85 1018.8
20180520022900 73 99 1.0 4.0 0.00 0.00 0.00 85 1018.6
20180520021900 74 106 1.0 4.0 0.00 0.00 0.00 85 1018.5
20180520020400 74 85 1.0 3.0 0.00 0.00 0.00 84 1018.2
20180520014859 74 121 1.0 5.0 0.00 0.00 0.00 84 1018.4
20180520013359 74 107 0.0 5.0 0.00 0.00 0.00 83 1018.2
20180520012359 74 174 0.0 5.0 0.00 0.00 0.00 84 1018.2
20180520011859 74 175 1.0 3.0 0.00 0.00 0.00 83 1018.3
20180520011359 74 188 0.0 3.0 0.00 0.00 0.00 84 1018.2
20180520010859 74 66 0.0 3.0 0.00 0.00 0.00 83 1018.2
20180520010359 74 137 0.0 3.0 0.00 0.00 0.00 83 1018.2
20180520005859 75 108 0.0 4.0 0.00 0.00 0.00 83 1018.1
20180520005359 75 99 0.0 4.0 0.00 0.00 0.00 84 1018.0
20180520004859 75 136 1.0 4.0 0.00 0.00 0.00 83 1018.0
20180520004359 75 84 1.0 4.0 0.00 0.00 0.00 84 1017.8
20180520003859 75 77 1.0 4.0 0.00 0.00 0.00 84 1017.9
20180520003359 75 111 0.0 4.0 0.00 0.00 0.00 84 1017.7
20180520002859 75 167 0.0 4.0 0.00 0.00 0.00 83 1017.7
20180520002359 76 122 3.0 4.0 0.00 0.00 0.00 83 1017.7
20180520001859 76 80 3.0 4.0 0.00 0.00 0.00 83 1017.6
20180520000858 76 153 1.0 4.0 0.00 0.00 0.00 82 1017.5
20180519234858 76 311 0.0 10.0 0.00 0.00 0.00 80 1017.3
20180519233858 77 111 0.0 10.0 0.00 0.00 0.00 80 1017.2
20180519232858 77 167 0.0 10.0 0.00 0.00 0.00 79 1017.2
20180519232358 77 74 2.0 10.0 0.00 0.00 0.00 79 1017.2
20180519231358 77 146 1.0 10.0 0.00 0.00 0.00 77 1017.3
20180519230858 77 126 3.0 10.0 0.00 0.00 0.00 77 1017.4
20180519230358 77 148 3.0 6.0 0.00 0.00 0.00 78 1017.4
20180519225858 78 127 0.0 5.0 0.00 0.00 0.00 79 1017.4
20180519225358 78 86 0.0 5.0 0.00 0.00 0.00 80 1017.4
20180519224858 78 96 3.0 5.0 0.00 0.00 0.00 81 1017.4
20180519223357 78 110 3.0 5.0 0.00 0.00 0.00 81 1017.5
20180519221357 78 67 0.0 4.0 0.00 0.00 0.00 81 1017.2
20180519220857 78 109 0.0 3.0 0.00 0.00 0.00 81 1017.2
20180519220357 78 98 0.0 2.0 0.00 0.00 0.00 81 1017.3
20180519215857 78 118 1.0 7.0 0.00 0.00 0.00 81 1017.2
20180519215357 78 79 0.0 7.0 0.00 0.00 0.00 81 1017.1
20180519213857 78 120 1.0 7.0 0.00 0.00 0.00 81 1016.9
20180519212857 78 123 0.0 7.0 0.00 0.00 0.00 81 1017.0
20180519211856 78 91 0.0 7.0 0.00 0.00 0.00 81 1016.9
20180519211357 78 101 2.0 7.0 0.00 0.00 0.00 80 1016.9
20180519210857 78 73 3.0 7.0 0.00 0.00 0.00 81 1016.9
20180519204856 78 121 2.0 10.0 0.00 0.00 0.00 80 1017.0
20180519203356 78 90 5.0 10.0 0.00 0.00 0.00 81 1017.2
20180519202356 78 44 2.0 6.0 0.00 0.00 0.00 80 1017.2
20180519201856 78 108 2.0 5.0 0.00 0.00 0.00 80 1017.1
20180519194856 79 170 0.0 8.0 0.00 0.02 0.00 78 1017.1
20180519194356 79 116 3.0 8.0 0.00 0.02 0.00 77 1017.0